EDT,Max TemperatureF,Mean TemperatureF,Min TemperatureF,Max Dew PointF,MeanDew PointF,Min DewpointF,Max Humidity, Mean Humidity, Min Humidity, Max Sea Level PressureIn, Mean Sea Level PressureIn, Min Sea Level PressureIn, Max VisibilityMiles, Mean VisibilityMiles, Min VisibilityMiles, Max Wind SpeedMPH, Mean Wind SpeedMPH, Max Gust SpeedMPH,PrecipitationIn, CloudCover, Events, WindDirDegrees
2013-5-1,73,59,45,48,43,32,86,59,31,30.35,30.28,30.22,10,10,10,15,6,20,0.00,0,,134
2013-5-2,77,60,43,44,39,34,82,55,28,30.35,30.29,30.21,10,10,10,16,5,22,0.00,0,,154
2013-5-3,70,53,35,40,35,23,92,56,20,30.27,30.24,30.21,10,10,10,22,7,32,0.00,0,,144
2013-5-4,70,55,40,40,32,22,59,39,19,30.22,30.15,30.10,10,10,10,20,6,29,0.00,0,,120
2013-5-5,71,58,45,38,28,16,54,35,15,30.14,30.08,30.02,10,10,10,21,6,30,0.00,0,,138
2013-5-6,62,57,52,51,45,38,77,66,54,30.06,30.02,29.99,10,10,7,18,5,25,0.04,6,Rain,114
2013-5-7,61,56,50,54,51,46,100,86,72,29.99,29.96,29.91,10,7,2,14,1,18,1.26,8,Rain,206
2013-5-8,65,55,45,50,47,42,93,71,48,30.03,29.97,29.92,10,10,7,18,3,23,0.17,6,Rain,262
2013-5-9,72,59,45,54,51,45,93,67,41,30.09,30.05,29.96,10,10,2,16,2,21,0.07,6,Rain,268
2013-5-10,79,63,47,58,51,46,100,68,35,30.10,30.03,29.90,10,5,0,21,4,31,0.42,5,Fog-Rain,169
2013-5-11,66,59,51,57,53,45,93,78,63,29.90,29.87,29.84,10,8,2,16,5,29,0.51,8,Rain,256
2013-5-12,52,47,42,45,32,24,86,62,38,30.12,29.98,29.88,10,10,10,22,8,30,0.03,6,Rain,280
2013-5-13,52,42,32,34,28,21,89,62,35,30.24,30.16,30.10,10,10,9,20,5,25,T,6,Rain,289
2013-5-14,64,46,28,46,31,26,92,60,27,30.26,30.16,30.00,10,7,0,13,2,17,T,4,Fog-Rain,240
2013-5-15,85,66,47,54,49,43,80,55,29,29.99,29.92,29.83,10,10,10,24,10,32,T,1,,244
2013-5-16,72,62,52,61,54,45,100,69,38,30.06,29.98,29.88,10,9,2,20,6,30,0.30,6,Rain,222
2013-5-17,77,64,50,60,54,48,100,70,40,30.15,30.11,30.06,10,6,0,15,2,21,0.01,5,Fog,169
2013-5-18,78,66,54,60,56,53,100,71,42,30.18,30.14,30.07,10,7,0,14,3,18,T,6,Fog,207
2013-5-19,76,66,55,59,57,54,93,75,57,30.15,30.10,30.03,10,10,6,16,6,24,0.00,5,,157
2013-5-20,78,66,54,65,59,53,100,78,56,30.12,30.07,30.03,10,4,0,7,1,,0.03,3,Fog-Rain,196
2013-5-21,83,70,56,64,59,54,100,70,40,30.09,30.02,29.91,10,6,0,14,2,23,0.00,4,Fog,225
2013-5-22,75,65,54,65,59,53,100,83,66,30.02,29.96,29.90,10,9,2,22,2,31,0.48,4,Rain,198
2013-5-23,79,68,57,61,57,52,100,71,42,29.94,29.90,29.82,10,4,0,20,5,26,0.25,7,Rain,246
2013-5-24,58,46,34,55,42,31,93,73,53,30.34,30.08,29.88,10,7,2,18,8,25,0.23,8,Rain,309
2013-5-25,58,45,32,36,32,29,96,68,40,30.37,30.30,30.27,10,6,0,18,5,26,0.00,4,Fog,310
2013-5-26,64,48,31,39,32,27,100,64,27,30.34,30.30,30.27,10,7,0,14,3,23,0.00,0,Fog,309
2013-5-27,66,50,33,52,43,31,96,74,52,30.35,30.26,30.17,10,7,1,6,0,8,T,5,,309
2013-5-28,79,65,51,60,55,50,96,69,42,30.19,30.15,30.08,10,10,7,16,3,25,0.01,5,Rain,238
2013-5-29,83,67,50,60,55,48,100,70,40,30.23,30.18,30.15,10,8,2,14,3,20,0.00,1,,271
2013-5-30,86,69,51,63,55,50,96,67,37,30.28,30.23,30.15,10,6,0,15,1,21,0.00,2,Fog,297
2013-5-31,86,69,52,63,56,50,100,69,37,30.24,30.19,30.06,10,5,0,9,1,13,0.00,2,Fog,298